Flag for Romania Weather past 2 weeks in Oradea, Romania

Now
68 °F

Sunny.


Feels Like: 68 °F
Forecast: 64 / 95 °F
Wind: 7 mph from Southeast

Location: Oradea Airport

Current Time: Aug 28, 2015 at 8:42:28 AM

Latest Report: Aug 28, 2015 at 8:00 AM


Visibility: 10 mi

Pressure: 30.09 "Hg

Humidity: 78%

Dew point: 61 °F

Location of OradeaLocation

Historic Weather in Oradea — Graph

°F

Oradea temperature yesterday

Maximum temperature yesterday: 88 °F (at 4:00 PM)
Minimum temperature yesterday: 68 °F (at 7:30 AM)
Average temperature yesterday: 79 °F

Past Weeks' High & Low Weather Summary

 TemperatureHumidityPressure
High97 °F (Aug 14, 4:00 PM)100% (Aug 22, 9:00 AM)30.21 "Hg (Aug 22, 9:00 AM)
Low55 °F (Aug 24, 5:30 AM)19% (Aug 14, 4:00 PM)29.71 "Hg (Aug 16, 5:30 PM)
Average73 °F65%29.98 "Hg
* Reported Aug 13 7:00 AM — Aug 28 7:30 AM, Oradea, Weather by CustomWeather, © 2015

Note: Actual official high and low records may vary slightly from our data, if they occured in-between our weather recording intervals... More about our weather records

Advertising

Oradea weather history for previous 24 hours

 ConditionsComfort  
Time TempWeatherWind HumidityBarometerVisibility
7:30 AM
Fri, Aug 28
66 °FMild.8 mph83%30.09 "HgN/A
7:00 AM64 °FMild.7 mph88%30.09 "HgN/A
6:30 AM64 °FMild.8 mph88%30.09 "HgN/A
6:00 AM64 °FMild.7 mph88%30.09 "HgN/A
5:30 AM64 °FMild.6 mph88%30.09 "HgN/A
5:00 AM66 °FMild.7 mph83%30.07 "HgN/A
4:00 AM66 °FMild.7 mph83%30.07 "HgN/A
3:00 AM66 °FMild.7 mph88%30.09 "HgN/A
2:00 AM68 °FMild.6 mph83%30.09 "HgN/A
1:00 AM68 °FMild.6 mph83%30.07 "HgN/A
12:00 AM70 °FMild.7 mph83%30.09 "HgN/A
11:30 PM
Thu, Aug 27
70 °FMild.7 mph83%30.09 "HgN/A
11:00 PM72 °FMild.6 mph78%30.09 "HgN/A
10:30 PM72 °FMild.6 mph78%30.09 "HgN/A
10:00 PM73 °FMild.6 mph74%30.09 "HgN/A
9:30 PM75 °FMild.6 mph69%30.09 "HgN/A
9:00 PM75 °FSunny.5 mph65%30.07 "Hg10 mi
8:30 PM79 °FSunny.3 mph58%30.07 "Hg10 mi
8:00 PM84 °FSunny.3 mph45%30.07 "Hg10 mi
7:30 PM84 °FSunny.3 mph45%30.07 "Hg10 mi
7:00 PM86 °FPassing clouds.3 mph40%30.07 "HgN/A
6:30 PM86 °FSunny.5 mph40%30.07 "Hg10 mi
6:00 PM88 °FPassing clouds.5 mph35%30.09 "HgN/A
5:30 PM88 °FPassing clouds.5 mph35%30.09 "HgN/A
5:00 PM88 °FSunny.8 mph35%30.09 "Hg10 mi
4:30 PM88 °FSunny.10 mph35%30.09 "Hg10 mi
4:00 PM88 °FPassing clouds.7 mph35%30.09 "HgN/A
3:30 PM86 °FPassing clouds.6 mph38%30.09 "HgN/A
3:00 PM86 °FWarm.8 mph40%30.09 "Hg4 mi
2:00 PMN/AFog.7 mphN/A30.12 "Hg3 mi
1:30 PM82 °FSunny.8 mph48%30.12 "Hg10 mi
12:30 PM82 °FPassing clouds.6 mph45%30.12 "HgN/A
12:00 PM81 °FSunny.2 mph54%30.12 "Hg10 mi
11:00 AM79 °FSunny.N/A54%30.12 "Hg10 mi
10:30 AM75 °FSunny.N/A69%30.12 "Hg10 mi
10:00 AM75 °FSunny.N/A69%30.12 "Hg10 mi
9:30 AM73 °FSunny.N/A74%30.12 "Hg10 mi
9:00 AM72 °FSunny.N/A78%30.12 "Hg10 mi
8:30 AM72 °FSunny.N/A78%30.12 "Hg10 mi
8:00 AM70 °FSunny.N/A83%30.12 "Hg10 mi
Weather by CustomWeather, © 2015

See weather overviewHow to use our weather pages